Voltar ao catálogo

STARLINK-37058

AtivoComunicaçõesVLEO
NORAD 68195·PAYLOAD·🇺🇸 United States

Lançado Mar 14, 2026 de Vandenberg Space Force Base

Loading…

Próximas Passagens (próximas 24 horas)

TLE

AtualizadoSource: CelesTrak SupGP

Época: Sep 15, 2026, 02:52 UTC

1 68195C 26050AE  26258.11993056  .00013450  00000+0  39734-3 0  2588
2 68195  53.1578 102.6376 0001177  78.8805 339.7620 15.34385969    11

Acompanhe STARLINK-37058 em tempo real com AllMySat

Download on the App Store